Hill City, KS

4:13 AM CDT on August 27, 2016 (GMT -0500)
Hill City Municipal

Weather History for KHLC - November, 2014

Change the Weather History Date:

Tuesday, November 18, 2014

  Actual Average Record
Temperature  
Mean Temperature 30 °F 39 °F  
Max Temperature 57 °F 52 °F 80 °F (1908)
Min Temperature 2 °F 26 °F 2 °F (2014)
Degree Days  
Heating Degree Days 35    
Moisture  
Dew Point 6 °F    
Average Humidity 43    
Maximum Humidity 76    
Minimum Humidity 13    
Precipitation  
Precipitation 0.00 in 0.03 in 0.32 in (2004)
Month to date precipitation 0.01 0.66  
Year to date precipitation 21.44 21.94  
Sea Level Pressure  
Sea Level Pressure 30.17 in    
Wind  
Wind Speed 7 mph (West)    
Max Wind Speed 21 mph    
Max Gust Speed 28 mph    
Visibility 10 miles    
Events      
T = Trace of Precipitation, MM = Missing Value Source: NWS Daily Summary

Daily Weather History Graph

Daily Weather History Graph

Search for Another Location

Airport or City:

Trip Planner

Search our weather history database for the weather conditions in past years. The results will help you decide how hot, cold, wet, or windy it might be!

Date:

Astronomy

Nov. 18, 2014 Rise Set
Actual Time 7:26 AM CST 5:22 PM CST
Civil Twilight 6:57 AM CST 5:51 PM CST
Nautical Twilight 6:24 AM CST 6:23 PM CST
Astronomical Twilight 5:53 AM CST 6:55 PM CST
Moon 3:27 AM CST (11/18) 3:16 PM CST (11/18)
Length of Visible Light 10h 53m
Length of Day
9h 55m
Waning Crescent, 15% of the Moon is Illuminated
Nov 18
Waning Crescent
Nov 22
New
Nov 29
First Quarter
Dec 6
Full
Dec 14
Last Quarter

Hourly Weather History & Observations

Time (CST) Temp. Windchill Dew Point Humidity Pressure Visibility Wind Dir Wind Speed Gust Speed Precip Events Conditions
12:53 AM 3.9 °F -5.3 °F -2.0 °F 76% 30.38 in 10.0 mi West 4.6 mph - N/A   Clear
1:53 AM 3.0 °F -4.4 °F -2.9 °F 76% 30.36 in 10.0 mi WSW 3.5 mph - N/A   Clear
2:53 AM 3.9 °F -6.9 °F -2.0 °F 76% 30.35 in 10.0 mi WSW 5.8 mph - N/A   Clear
3:53 AM 3.0 °F -8.0 °F -2.9 °F 76% 30.34 in 10.0 mi West 5.8 mph - N/A   Clear
4:53 AM 10.0 °F -2.9 °F 1.9 °F 70% 30.32 in 10.0 mi West 9.2 mph - N/A   Clear
5:53 AM 9.0 °F -2.2 °F 1.0 °F 70% 30.33 in 10.0 mi West 6.9 mph - N/A   Clear
6:53 AM 9.0 °F -3.2 °F -0.0 °F 67% 30.32 in 10.0 mi West 8.1 mph - N/A   Clear
7:53 AM 10.9 °F 0.2 °F 1.9 °F 67% 30.34 in 10.0 mi West 6.9 mph - N/A   Clear
8:53 AM 17.1 °F 7.6 °F 6.1 °F 62% 30.32 in 10.0 mi West 6.9 mph - N/A   Clear
9:53 AM 28.0 °F 22.8 °F 9.0 °F 45% 30.27 in 10.0 mi WSW 4.6 mph - N/A   Clear
10:53 AM 41.0 °F 35.8 °F 12.0 °F 31% 30.22 in 10.0 mi WSW 8.1 mph - N/A   Clear
11:53 AM 48.9 °F - 8.1 °F 19% 30.16 in 10.0 mi WSW 18.4 mph 26.5 mph N/A   Clear
12:53 PM 52.0 °F - 8.1 °F 17% 30.11 in 10.0 mi WSW 20.7 mph 27.6 mph N/A   Clear
1:53 PM 54.0 °F - 9.0 °F 17% 30.07 in 10.0 mi WSW 15.0 mph 26.5 mph N/A   Clear
2:53 PM 57.0 °F - 8.1 °F 14% 30.04 in 10.0 mi West 15.0 mph 21.9 mph N/A   Clear
3:53 PM 57.0 °F - 6.1 °F 13% 30.02 in 10.0 mi WSW 11.5 mph - N/A   Clear
4:53 PM 55.9 °F - 6.1 °F 14% 29.99 in 10.0 mi WSW 8.1 mph - N/A   Clear
5:53 PM 45.0 °F 42.6 °F 7.0 °F 21% 30.02 in 10.0 mi West 4.6 mph - N/A   Clear
6:53 PM 39.9 °F 35.8 °F 9.0 °F 28% 30.03 in 10.0 mi SSW 5.8 mph - N/A   Clear
7:53 PM 39.9 °F 35.8 °F 9.0 °F 28% 30.03 in 10.0 mi WSW 5.8 mph - N/A   Partly Cloudy
8:53 PM 36.0 °F 30.3 °F 9.0 °F 33% 30.03 in 10.0 mi West 6.9 mph - N/A   Partly Cloudy
9:53 PM 35.1 °F 30.1 °F 10.9 °F 37% 30.03 in 10.0 mi West 5.8 mph - N/A   Clear
10:53 PM 41.0 °F 34.7 °F 14.0 °F 33% 30.02 in 10.0 mi WNW 10.4 mph - N/A   Clear
11:53 PM 36.0 °F 29.6 °F 14.0 °F 41% 30.01 in 10.0 mi West 8.1 mph - N/A   Clear